カタログに戻る

SL-16 DEB

運用中LEO
NORAD 22341·DEBRIS·🇷🇺 Russia

打ち上げ Dec 25, 1992 から Baikonur Cosmodrome

Loading…

次のパス (今後24時間)

TLE

最新Source: Space-Track

元期: Sep 13, 2026, 04:24 UTC

1 22341U 92093AE  26256.18355142  .00000182  00000-0  15731-3 0  9996
2 22341  70.7443 290.6266 0141957 243.6597 175.7303 13.94849837709977

AllMySatでSL-16 DEBをリアルタイム追跡

Download on the App Store